Lid_Strength_Index
2 2 2 1 1 1 1 1 1 1 1 1 2 2 2 2 2 2 2 2 1 2 2 2 3 2 2 2 2 2 4 4 5 4 3 2 3 4 3 4 2 4 4
2 3 2 1 1 2 1 1 1 2 1 1 2 2 2 1 1 1 2 1 2 2 2 2 2 1 2 2 3 3 3 3 4 5 3 2 3 4 4 4 3 2 3
3 3 3 3 2 2 2 1 1 1 2 1 1 2 1 1 2 1 1 1 2 2 2 2 2 2 2 3 3 2 3 2 2 3 3 2 3 3 3 3 3 3 3
3 3 3 3 3 3 2 2 1 1 2 2 2 1 1 1 1 1 1 1 1 1 1 2 2 2 2 3 3 3 2 3 3 3 3 5 5 4 4 4 4 3 3
4 4 4 3 2 2 1 2 2 1 1 1 1 1 1 1 1 2 2 2 1 2 1 2 1 1 2 2 2 3 3 3 3 3 4 5 5 4 5 4 4 3 3
4 4 3 3 2 1 1 2 2 2 1 1 1 1 1 1 5 5 4 2 2 2 2 2 1 2 3 4 4 4 3 3 3 4 4 4 5 5 4 4 5 5 5
3 3 3 3 3 3 2 1 2 2 2 2 2 1 2 1 5 7 6 2 2 2 2 2 2 1 3 1 3 5 5 5 4 2 3 3 3 2 3 3 3 4 5
3 3 2 2 2 2 2 2 2 3 2 2 2 1 1 1 5 5 7 3 2 2 1 1 1 2 1 1 2 2 3 3 3 3 2 1 1 1 1 2 2 3 3
3 3 3 2 2 2 2 2 2 2 3 2 2 2 2 2 5 8 7 3 2 2 2 2 1 1 4 7 3 2 2 2 4 6 5 4 5 6 2 1 2 4 5
4 3 3 2 3 2 2 2 2 2 2 2 2 3 3 2 7 8 5 2 2 2 3 2 4 4 6 8 4 2 3 3 3 4 4 5 6 4 5 2 2 4 4
3 3 3 3 3 3 3 3 3 2 2 2 2 2 1 2 4 7 8 3 2 2 4 4 3 7 10 10 10 2 2 2 4 4 3 3 3 2 2 1 1 2 3
3 3 3 3 2 2 3 3 3 3 2 3 3 2 1 2 4 8 9 8 6 4 4 4 4 8 9 10 10 9 9 8 1 2 2 2 3 2 2 1 1 2 2
3 3 3 2 2 2 3 3 4 4 3 3 3 3 2 2 4 7 8 8 7 5 3 3 8 9 10 8 9 10 9 6 4 3 3 3 3 3 2 2 2 2 3
4 3 3 3 3 3 2 2 4 4 4 3 3 3 3 2 4 4 5 6 5 5 4 5 6 7 8 7 7 7 7 5 4 3 2 2 2 2 2 3 4 4 4
3 3 3 3 3 3 3 3 3 3 4 3 4 3 4 3 4 7 9 7 7 6 6 6 3 3 4 3 2 3 5 5 5 4 3 3 3 2 2 3 3 4 5
4 3 3 3 3 3 3 3 5 5 5 6 7 6 5 6 8 9 9 9 9 8 5 4 4 3 4 5 4 3 2 4 4 4 3 4 5 3 3 3 3 4 5
4 4 3 3 3 4 3 3 4 4 7 7 7 7 7 7 8 9 9 9 10 9 4 5 5 4 5 6 6 5 5 3 3 4 4 5 6 5 6 5 5 5 5
3 3 3 3 3 3 3 3 3 4 4 5 6 7 7 7 8 8 8 9 4 4 3 3 4 4 4 6 7 7 6 6 5 6 6 5 5 5 6 6 6 6 6
3 3 3 3 3 3 3 3 3 3 4 3 4 6 7 7 7 8 8 4 4 4 3 3 3 3 3 5 6 7 7 7 7 6 7 7 7 7 8 7 8 11 10
4 4 4 3 4 3 3 3 4 4 4 4 3 3 4 5 5 4 3 3 4 4 3 3 3 3 4 4 4 5 6 6 6 6 7 7 7 8 8 8 9 9 8
4 4 7 4 3 3 3 2 4 4 3 4 4 5 10 3 4 4 4 4 4 4 4 3 3 4 4 4 5 5 5 6 6 6 7 6 7 7 7 8 8 8 8
5 5 4 4 3 3 3 2 3 3 3 4 4 6 9 4 4 4 4 4 4 4 4 4 3 3 5 5 6 5 5 7 7 6 7 7 7 8 8 8 8 8 7
4 4 3 3 3 5 2 3 3 4 5 5 5 5 5 5 5 5 5 4 4 4 4 4 4 4 5 5 6 6 6 8 8 8 8 8 8 8 8 8 8 8 8
3 4 3 3 4 4 4 5 5 7 6 5 6 5 6 6 5 5 5 5 4 4 4 4 5 6 6 6 6 8 9 10 9 10 9 9 9 9 8 8 8 7 8
4 5 5 5 5 5 6 6 6 6 6 5 5 5 5 5 5 5 5 5 5 5 5 5 6 6 7 8 8 9 12 14 11 13 10 9 8 8 8 7 7 7 8
5 5 5 6 6 6 6 6 6 6 6 5 5 5 5 5 5 5 5 5 5 6 6 6 6 7 8 9 10 13 14 14 11 14 9 8 8 8 8 8 8 8 8